Location: De Har
(53.3413°N, 6.6858°E)
Time: 08:14:18
(UTC+00:00)

Cosmos 1110 Rocket - Pass Details

Date: 22 April 2026
Orbit: 748 x 777 km, 74.0° (Epoch: 15 May)

Event Time Altitude Azimuth Distance (km) Brightness Sun altitude
Exits shadow 00:23:00 44° 253° (WSW) 1,072 4.5 -23.6°
Maximum altitude 00:24:19 56° 302° (WNW) 924 4.4 -23.6°
Drops below altitude 10° 00:29:33 10° 21° (NNE) 2,338 7.6 -23.4°
Sets 00:32:01 0° 25° (NNE) 3,271 8.7 -23.3°
